Regional Weather Roundup
Issued by NWS

Home | Current Version | Previous Version | Graphics & Text | Print | Product List | Glossary On
Versions: 1 2 3 4 5 6 7 8 9 10 11 12 13 14 15 16 17 18 19 20 21 22 23 24 25 26 27 28 29 30 31 32 33 34 35 36 37 38 39 40 41 42 43 44 45 46 47 48 49 50
000
ASUS43 KDMX 180706
RWRIA

WEATHER ROUNDUP FOR IOWA
NATIONAL WEATHER SERVICE DES MOINES IA
200 AM CDT FRI AUG 18 2017

NOTE: "FAIR" INDICATES FEW OR NO CLOUDS BELOW 12,000 FEET WITH NO
SIGNIFICANT WEATHER AND/OR OBSTRUCTIONS TO VISIBILITY.

* - THESE STATIONS ARE NOT NWS STATIONS...THUS NOT UNDER NWS
QUALITY CONTROL.  THEY ALSO DO NOT REPORT WEATHER SUCH
AS PRECIPITATION OR FOG.

IAZ001>003-012>014-020>022-031>034-043>046-180800-
   NORTHWEST IOWA

CITY           SKY/WX    TMP DP  RH WIND       PRES   REMARKS
CARROLL *      MOCLDY    59  59 100 CALM      29.93R
CHEROKEE *     CLOUDY    58  58 100 CALM      29.91F
DENISON *      CLEAR     57  57 100 CALM      29.95S FOG
LE MARS *      CLOUDY    61  61 100 CALM      29.93R
ORANGE CITY *  CLOUDY    66  64  94 N5        29.95R
SHELDON *      CLOUDY    61  61 100 NW5       29.93R
SIOUX CITY     MOCLDY    62  62 100 CALM      29.92R
SPENCER        FOG       57  57 100 SW5       29.92S VSB 1/2
STORM LAKE *   CLOUDY    61  59  94 SW7       29.93S
$$

IAZ055>058-069>071-079>083-090>094-180800-
   SOUTHWEST IOWA

CITY           SKY/WX    TMP DP  RH WIND       PRES   REMARKS
ATLANTIC *     PTCLDY    59  59 100 CALM      29.95S
AUDUBON *      CLEAR     55  54  94 CALM      29.96R
CLARINDA *     FOG       55  55 100 CALM      29.97F VSB<1/4
COUNCIL BLFS * CLEAR     63  63 100 S6        29.93F FOG
CRESTON *      CLEAR     61  59  94 W7        29.97R
HARLAN  *      CLEAR     59  57  94 CALM      29.97F FOG
LAMONI         CLOUDY    64  60  87 W6        29.95R
RED OAK *      CLEAR     59  59 100 CALM      29.95S
SHENANDOAH *   CLEAR     59  59 100 CALM      29.95F
$$

IAZ047>049-059>061-072>074-084-180800-
   CENTRAL IOWA

CITY           SKY/WX    TMP DP  RH WIND       PRES   REMARKS
AMES           CLEAR     60  60 100 W5        29.91S
ANKENY *       CLEAR     63  59  88 CALM      29.93R
BOONE *        PTCLDY    63  61  94 CALM      29.91S
CHARITON *     CLEAR     63  59  88 W7        29.93R
DES MOINES     CLEAR     65  61  87 CALM      29.91S
GRINNELL*      CLEAR     61  60  94 CALM      29.91S
KNOXVILLE *    CLEAR     61  57  88 NW6       29.90S
MARSHALLTOWN   CLEAR     60  60 100 W5        29.89F
NEWTON *       CLEAR     63  61  94 W7        29.91S
PELLA *        CLEAR     63  60  90 W6        29.92R
PERRY *          N/A     59  58  97 W6        29.92S
$$

IAZ004>006-015-016-023>025-035-036-180800-
   NORTH CENTRAL IOWA

CITY           SKY/WX    TMP DP  RH WIND       PRES   REMARKS
ALGONA *       CLEAR     59  59 100 CALM      29.91S
CLARION *      CLEAR     55  55 100 CALM      29.91S
ESTHERVILLE    CLEAR     54  54 100 CALM      29.90S
FORT DODGE *   CLOUDY    57  55  94 CALM      29.92F VSB<1/4
MASON CITY     CLEAR     59  57  93 W8        29.91S
FOREST CITY *    N/A     59  57  94 CALM      29.90S
WEBSTER CITY * CLEAR     59  59 100 W6        29.89F FOG
IOWA FALLS *     N/A     61  60  95 W6        29.92S
$$

IAZ007>011-017>019-026>030-037>042-050>054-066-180800-
   NORTHEAST IOWA

CITY           SKY/WX    TMP DP  RH WIND       PRES   REMARKS
CEDAR RAPIDS   CLEAR     62  61  96 W7        29.86S
CHARLES CITY * CLEAR     61  61 100 W6        29.88F
CLINTON *      CLEAR     63  62  97 W8        29.84S
DECORAH *      CLOUDY    64  63  94 CALM      29.84S
DUBUQUE        CLEAR     63  61  93 NW8       29.84S
MONTICELLO *   CLEAR     63  61  94 W6        29.85R
OELWEIN *      CLEAR     61  61 100 W6        29.87S
WATERLOO       CLEAR     64  60  87 W6        29.86F
$$

IAZ064-065-067-068-078-180800-
   EAST CENTRAL IOWA

CITY           SKY/WX    TMP DP  RH WIND       PRES   REMARKS
DAVENPORT      CLEAR     64  62  93 W7        29.86S
IOWA CITY      CLEAR     65  62  90 W8        29.89R
MT. PLEASANT * CLEAR     66  63  90 W7        29.89R
MUSCATINE *    CLEAR     66  63  88 W7        29.87S
QUAD CITIES    CLEAR     68  62  81 W8        29.84S
$$

IAZ062-063-075>077-085>089-095>099-180800-
   SOUTHEAST IOWA

CITY           SKY/WX    TMP DP  RH WIND       PRES   REMARKS
BURLINGTON     PTCLDY    68  64  87 W5        29.87S
FAIRFIELD *    CLEAR     64  59  82 W7        29.89R
FORT MADISON * PTCLDY    68  63  83 W5        29.89R
KEOKUK *       CLEAR     64  61  88 W7        29.88S
OSKALOOSA *      N/A     60  58  94 W5        29.91S
CENTERVILLE *    N/A     63  59  88 CALM      29.94R
OTTUMWA        CLEAR     63  60  90 W8        29.90R
WASHINGTON *   CLEAR     63  63 100 W6        29.89S
$$

ABBREVIATIONS USED IN REMARKS
   TC - TEMPERATURES IN CELSIUS
  WCI - WIND CHILL INDEX
   HX - HEAT INDEX
  VSB - VISIBILITY
$$





USA.gov is the U.S. government's official web portal to all federal, state and local government web resources and services.